Regional Weather Roundup
Issued by NWS

Home | Current Version | Previous Version | Text Only | Print | Product List | Glossary Off
Versions: 1 2 3 4 5 6 7 8 9 10 11 12 13 14 15 16 17 18 19 20 21 22 23 24 25 26 27 28 29 30 31 32 33 34 35 36 37 38 39 40 41 42 43 44 45 46 47 48 49 50

000
ASUS43 KLSX 210059
RWRMO

WEATHER SUMMARY FOR MISSOURI
NATIONAL WEATHER SERVICE SPRINGFIELD MO
800 PM CDT MON OCT 20 2014

NOTE: "FAIR" INDICATES FEW OR NO CLOUDS BELOW 12,000 FEET WITH NO
       SIGNIFICANT WEATHER AND/OR OBSTRUCTIONS TO VISIBILITY.
       CURRENT SKY AND/OR WEATHER CONDITIONS ARE NOT AVAILABLE FOR
       CHILLICOTHE AND FARMINGTON.

MOZ001>031-035>038-043-044-053-054-210200-
...NORTHERN AND WESTERN MISSOURI...

CITY           SKY/WX    TMP DP  RH WIND       PRES   REMARKS
KANSAS CTY INT CLEAR     63  41  44 N3        30.05R
KANSAS C DTWN  CLEAR     62  47  57 CALM      30.04R
LEE`S SUMMIT   CLEAR     63  43  48 CALM      30.05R
ST JOSEPH      CLEAR     52  43  71 CALM      30.05R
KIRKSVILLE     CLEAR     51  45  79 CALM      30.03S

$$
MOZ066>068-077>081-088>096-101>105-210200-
...SOUTHWEST MISSOURI...

CITY           SKY/WX    TMP DP  RH WIND       PRES   REMARKS
SPRINGFIELD    CLEAR     60  54  80 CALM      30.03S
JOPLIN         CLEAR     61  56  83 S3        30.04R

$$
MOZ032>034-039>042-045>050-055>058-069>072-210200-
...CENTRAL MISSOURI...

CITY           SKY/WX    TMP DP  RH WIND       PRES   REMARKS
COLUMBIA       CLEAR     59  43  55 NW6       30.04R
JEFFERSON CITY CLEAR     60  44  55 NW5       30.03R
ROLLA          CLEAR     58  44  60 NW6       30.02R
SEDALIA        CLEAR     61  42  49 CALM      30.05R
OSAGE BEACH    CLEAR     61  46  59 N5        30.03R

$$
MOZ051-052-059>065-210200-
...EAST CENTRAL MISSOURI...

CITY           SKY/WX    TMP DP  RH WIND       PRES   REMARKS
ST LOUIS INTL  CLEAR     62  44  51 NW3       30.01R
SPIRIT OF STL  CLEAR     51  47  86 CALM      30.00R
ST CHARLES     CLEAR     58  47  66 NW6       30.00R

$$
MOZ072>076-082>087-097>100-106>115-210200-
...SOUTH CENTRAL AND SOUTHEAST MISSOURI...

CITY           SKY/WX    TMP DP  RH WIND       PRES   REMARKS
CAPE GIRARDEAU PTCLDY    60  55  83 N3        29.98R
FARMINGTON     CLEAR     64  45  48 NW6       30.02R
WEST PLAINS    CLEAR     62  57  83 W6        30.03R

$$


USA.gov is the U.S. government's official web portal to all federal, state and local government web resources and services.